Stations météo

réclame
Mon MeteoGroup
Helgoland, Allemagne (10015): Température de l'air & dewpoint: 10.11.2018 00:00:00 - 16.11.2018 00:00:00 (CET)Helgoland, Allemagne (10015): Température de l'air 5cm: 10.11.2018 00:00:00 - 16.11.2018 00:00:00 (CET)Helgoland, Allemagne (10015): Vitesse du vent & gusts: 10.11.2018 00:00:00 - 16.11.2018 00:00:00 (CET)Helgoland, Allemagne (10015): Direction du vent: 10.11.2018 00:00:00 - 16.11.2018 00:00:00 (CET)Helgoland, Allemagne (10015): reduced air pressure: 10.11.2018 00:00:00 - 16.11.2018 00:00:00 (CET)Helgoland, Allemagne (10015): visibility: 10.11.2018 00:00:00 - 16.11.2018 00:00:00 (CET)Helgoland, Allemagne (10015): Ensoleillement: 10.11.2018 00:00:00 - 16.11.2018 00:00:00 (CET)Helgoland, Allemagne (10015): Quantités de précipitations: 10.11.2018 00:00:00 - 16.11.2018 00:00:00 (CET)
Date & Time tt [°C] td [°C] tt 5cm [°C] ff [km/h] ff [knt] fx [km/h] fx [knt] dd ppp [hPa] vv [km] sd [min] rr [mm]
16.11.2018 00:00:00 7,9 5,2 6,3 35 19 41 22 SSE 1027,5 15 0 0,0
15.11.2018 23:00:00 8,4 6,0 6,5 32 17 38 20 SSE 1027,5 14 0 0,0
15.11.2018 22:00:00 8,1 6,3 6,5 31 17 38 21 SSE 1027,3 9 0 0,0
15.11.2018 21:00:00 7,9 6,4 6,5 31 17 40 22 SSE 1027,1 8 0 0,0
15.11.2018 20:00:00 7,8 6,3 6,6 32 17 39 21 SSE 1027,2 8 0 0,0
15.11.2018 19:00:00 7,3 5,7 6,0 28 15 43 23 S 1027,2 11 0 0,0
15.11.2018 18:00:00 7,7 6,6 7,1 34 18 40 22 SSE 1026,8 9 0 0,0
15.11.2018 17:00:00 7,9 7,2 7,6 29 16 36 20 SE 1026,4 4,6 0 0,0
15.11.2018 16:00:00 8,0 6,8 7,3 31 17 35 19 SE 1026,5 9 24 0,0
15.11.2018 15:00:00 7,8 6,9 7,9 28 15 33 18 SE 1026,6 6 21 0,0
15.11.2018 14:00:00 9,3 7,2 10,2 24 13 28 15 SE 1026,6 12 60 0,0
15.11.2018 13:00:00 9,3 7,0 10,8 21 11 26 14 SSE 1026,9 13 60 0,0
15.11.2018 12:00:00 9,4 7,5 10,9 21 11 25 14 SSE 1027,1 10 58 0,0
15.11.2018 11:00:00 9,2 7,3 9,8 20 11 28 15 S 1027,0 11 60 0,0
15.11.2018 10:00:00 9,5 6,8 9,5 23 12 29 15 S 1027,0 17 60 0,0
15.11.2018 09:00:00 9,3 6,6 7,9 21 11 28 15 S 1026,7 18 16 0,0
15.11.2018 08:00:00 9,5 7,2 7,9 23 13 30 16 S 1026,4 16 0 0,0
15.11.2018 07:00:00 9,7 6,8 7,9 24 13 29 15 S 1026,2 21 0 0,0
15.11.2018 06:00:00 9,8 8,3 8,2 25 14 32 17 S 1026,0 11 0 0,0
15.11.2018 05:00:00 9,9 8,4 8,8 26 14 31 17 S 1026,1 13 0 0,0
15.11.2018 04:00:00 10,2 7,7 8,9 24 13 29 16 S 1026,1 19 0 0,0
15.11.2018 03:00:00 10,6 7,2 8,7 25 13 29 16 S 1026,2 21 0 0,0
15.11.2018 02:00:00 10,7 7,3 9,0 23 12 28 15 S 1026,2 19 0 0,0
15.11.2018 01:00:00 10,9 7,7 9,2 26 14 36 20 S 1026,2 15 0 0,0
15.11.2018 00:00:00 11,2 7,9 9,6 29 16 39 21 SSW 1026,0 16 0 0,0
14.11.2018 23:00:00 11,3 8,2 10,1 34 18 42 23 SSW 1025,8 15 0 0,0
14.11.2018 22:00:00 11,3 8,4 10,2 35 19 45 25 SSW 1026,1 15 0 0,0
14.11.2018 21:00:00 11,5 8,5 10,4 35 19 42 23 S 1026,2 17 0 0,0
14.11.2018 20:00:00 11,7 8,7 11,1 36 19 44 24 S 1026,0 19 0 0,0
14.11.2018 19:00:00 11,7 8,4 11,1 35 19 43 23 S 1025,9 23 0 0,0
14.11.2018 18:00:00 11,9 8,6 11,3 36 19 44 24 SSW 1025,6 23 0 0,0
14.11.2018 17:00:00 12,0 8,4 11,3 33 18 42 23 SSW 1025,8 24 0 0,0
14.11.2018 16:00:00 11,9 8,7 11,4 35 19 42 23 SSW 1025,7 22 0 0,0
14.11.2018 15:00:00 11,7 8,6 11,4 27 15 32 18 SSW 1025,9 21 0 0,0
14.11.2018 14:00:00 11,0 8,9 10,9 26 14 32 17 SSW 1026,1 13 4 0,0
14.11.2018 13:00:00 10,1 8,5 10,4 24 13 35 19 S 1026,4 9 0 0,0
14.11.2018 12:00:00 9,4 8,8 9,9 26 14 37 20 SSW 1026,8 3,5 0 0,0
14.11.2018 11:00:00 9,3 8,5 9,6 31 17 36 19 SSW 1026,9 4,4 0 0,0
14.11.2018 10:00:00 9,8 9,0 9,9 27 15 40 21 SSW 1026,6 5 0 0,0
14.11.2018 09:00:00 10,0 9,1 10,0 31 17 37 20 SSW 1026,4 6 0 0,0
14.11.2018 08:00:00 9,7 9,1 9,6 31 17 40 22 SW 1025,9 4,5 0 0,0
14.11.2018 07:00:00 9,6 9,0 9,4 31 17 42 23 SW 1025,7 3,1 0 0,0
14.11.2018 06:00:00 10,5 9,4 9,8 33 18 40 21 SW 1025,2 7 0 0,0
14.11.2018 05:00:00 11,0 9,5 9,9 27 15 39 21 SW 1025,2 13 0 0,0
14.11.2018 04:00:00 11,2 9,5 10,4 32 17 42 23 SW 1025,0 13 0 0,0
14.11.2018 03:00:00 12,2 7,7 11,3 36 19 47 26 W 1025,2 18 0 0,0
14.11.2018 02:00:00 12,1 6,9 11,1 42 23 52 28 W 1025,1 13 0 0,0
14.11.2018 01:00:00 12,2 8,2 10,8 40 22 51 28 W 1024,5 13 0 0,0
14.11.2018 00:00:00 12,3 8,6 11,4 42 23 56 31 W 1024,0 11 0 0,0
13.11.2018 23:00:00 12,3 8,4 11,5 47 26 58 31 W 1023,3 12 0 0,0
13.11.2018 22:00:00 12,2 8,4 11,2 47 25 61 33 W 1022,7 12 0 0,0
13.11.2018 21:00:00 12,1 8,5 10,8 49 26 63 34 W 1022,1 12 0 0,0
13.11.2018 20:00:00 12,0 8,7 10,6 50 27 66 35 WSW 1021,2 10 0 0,6
13.11.2018 19:00:00 12,0 8,3 11,4 45 24 59 32 WSW 1020,7 12 0 0,0
13.11.2018 18:00:00 11,9 8,8 10,9 49 27 64 35 WSW 1020,0 11 0 0,0
13.11.2018 17:00:00 12,1 8,2 11,5 49 26 62 34 WSW 1019,1 15 0 0,0
13.11.2018 16:00:00 11,9 9,2 11,2 48 26 66 35 WSW 1018,2 14 1 0,0
13.11.2018 15:00:00 11,3 9,0 10,3 49 26 64 35 SW 1017,3 9 12 0,2
13.11.2018 14:00:00 11,5 8,6 12,0 50 27 64 35 SW 1017,0 14 31 0,0
13.11.2018 13:00:00 11,3 8,2 10,9 48 26 69 37 SW 1016,8 16 0 0,1
13.11.2018 12:00:00 10,8 9,0 9,9 49 26 73 39 SW 1016,7 5 1 0,1
13.11.2018 11:00:00 10,8 8,7 10,4 50 27 63 34 SW 1016,6 11 0 0,0
13.11.2018 10:00:00 10,2 8,4 10,1 50 27 59 32 SSW 1016,2 10 3 0,0
13.11.2018 09:00:00 10,4 8,7 9,4 43 23 53 29 SSW 1015,8 10 1 0,0
13.11.2018 08:00:00 10,3 8,4 9,0 38 20 50 27 SSW 1015,3 10 0 0,0
13.11.2018 07:00:00 10,3 8,2 9,4 41 22 49 27 SW 1015,5 10 0 0,0
13.11.2018 06:00:00 10,6 8,5 9,1 38 20 45 25 SSW 1015,3 9 0 0,0
13.11.2018 05:00:00 10,9 8,7 9,4 36 19 43 23 SSW 1015,6 10 0 0,0
13.11.2018 04:00:00 11,2 8,9 9,7 36 19 45 24 SSW 1015,6 11 0 0,0
13.11.2018 03:00:00 11,1 9,0 9,7 36 19 45 25 SSW 1015,9 10 0 0,0
13.11.2018 02:00:00 11,0 9,2 9,7 35 19 42 23 SSW 1015,7 8 0 0,0
13.11.2018 01:00:00 11,0 9,2 9,9 34 18 39 21 SW 1015,7 10 0 0,0
13.11.2018 00:00:00 10,9 9,5 10,0 31 17 40 21 SSW 1015,7 7 0 0,0
12.11.2018 23:00:00 11,0 9,8 9,8 31 17 35 19 SSW 1015,5 7 0 0,0
12.11.2018 22:00:00 11,2 9,7 10,1 29 16 35 19 SW 1015,6 9 0 0,0
12.11.2018 21:00:00 11,2 9,4 10,1 28 15 32 17 SW 1015,2 19 0 0,0
12.11.2018 20:00:00 11,1 8,9 9,4 18 10 26 14 SW 1014,5 44 0 0,0
12.11.2018 19:00:00 10,7 8,6 9,0 11 6 16 9 SW 1013,7 63 0 0,0
12.11.2018 18:00:00 10,3 9,6 9,6 4 2 16 8 SW 1013,1 38 0 0,5
12.11.2018 17:00:00 10,4 8,7 9,5 20 11 32 17 WNW 1012,9 6 0 0,3
12.11.2018 16:00:00 11,4 9,9 10,8 13 7 16 9 W 1012,3 16 0 0,0
12.11.2018 15:00:00 11,3 10,1 11,0 13 7 20 11 SW 1012,2 11 0 0,1
12.11.2018 14:00:00 11,3 10,5 11,0 18 10 23 12 SSW 1012,5 5 0 1,0
12.11.2018 13:00:00 11,2 10,2 10,8 21 11 30 16 S 1012,5 4,6 0 0,4
12.11.2018 12:00:00 11,4 10,1 11,0 24 13 30 16 S 1012,6 8 0 0,0
12.11.2018 11:00:00 11,3 10,0 11,1 24 13 35 19 S 1012,8 9 0 0,0
12.11.2018 10:00:00 11,2 10,1 10,9 29 15 35 19 S 1012,9 8 0 0,0
12.11.2018 09:00:00 11,1 10,0 10,7 27 14 32 18 S 1012,8 9 0 0,0
12.11.2018 08:00:00 11,1 9,9 10,5 28 15 32 17 S 1012,2 11 0 0,0
12.11.2018 07:00:00 10,9 9,6 10,2 27 15 34 18 S 1012,1 13 0 0,0
12.11.2018 06:00:00 10,9 9,6 9,9 27 15 37 20 SSW 1012,2 13 0 0,0
12.11.2018 05:00:00 10,9 9,5 10,0 30 16 37 20 SSW 1011,8 12 0 0,0
12.11.2018 04:00:00 11,1 9,6 10,0 29 16 39 21 SSW 1011,5 14 0 0,0
12.11.2018 03:00:00 11,2 9,4 9,8 32 17 38 20 SSW 1011,4 17 0 0,0
12.11.2018 02:00:00 11,5 8,6 10,4 34 18 43 23 SW 1010,8 26 0 0,0
12.11.2018 01:00:00 11,9 8,5 10,5 35 19 43 23 SW 1009,9 26 0 0,0
12.11.2018 00:00:00 11,8 9,2 10,5 36 19 46 25 SSW 1009,5 25 0 0,0
11.11.2018 23:00:00 11,8 9,6 10,8 37 20 46 25 SSW 1008,6 25 0 0,0
11.11.2018 22:00:00 12,2 9,7 11,2 38 20 48 26 S 1007,9 27 0 0,0
11.11.2018 21:00:00 12,3 9,9 11,3 39 21 48 26 S 1007,4 30 0 0,0
11.11.2018 20:00:00 12,6 9,5 11,9 42 23 50 27 S 1006,6 30 0 0,0
11.11.2018 19:00:00 12,8 9,6 12,1 33 18 44 24 S 1006,1 32 0 0,0
11.11.2018 18:00:00 12,9 9,6 12,2 35 19 51 27 S 1005,7 33 0 0,0
11.11.2018 17:00:00 12,9 9,5 12,1 41 22 52 28 S 1005,1 30 0 0,0
11.11.2018 16:00:00 12,9 9,8 11,7 41 22 50 27 S 1004,7 28 0 0,0
11.11.2018 15:00:00 12,6 10,0 11,8 38 20 50 27 S 1004,4 24 10 0,0
11.11.2018 14:00:00 12,0 10,2 11,3 45 24 57 31 S 1004,1 10 1 0,0
11.11.2018 13:00:00 11,8 10,2 11,3 44 24 55 30 S 1003,6 17 0 0,2
11.11.2018 12:00:00 12,0 9,9 11,0 44 24 53 29 S 1003,4 14 0 0,4
11.11.2018 11:00:00 12,3 9,8 11,6 41 22 53 28 S 1003,2 9 0 0,0
11.11.2018 10:00:00 12,3 9,9 11,7 39 21 49 26 S 1003,0 28 0 0,0
11.11.2018 09:00:00 12,3 10,2 11,4 40 21 52 28 S 1002,8 27 0 0,0
11.11.2018 08:00:00 12,5 10,5 11,4 41 22 50 27 S 1002,5 25 0 0,0
11.11.2018 07:00:00 12,3 10,8 11,3 39 21 49 26 S 1002,1 16 0 0,0
11.11.2018 06:00:00 12,5 11,0 11,6 41 22 46 25 S 1002,1 14 0 1,3
11.11.2018 05:00:00 12,5 11,0 11,9 36 19 45 24 S 1002,2 23 0 0,0
11.11.2018 04:00:00 12,4 11,0 11,6 35 19 41 22 S 1002,1 16 0 0,0
11.11.2018 03:00:00 12,5 10,5 11,4 29 16 42 23 S 1002,3 32 0 0,0
11.11.2018 02:00:00 12,3 10,6 11,4 36 19 54 29 S 1002,3 30 0 0,4
11.11.2018 01:00:00 12,3 11,0 11,5 38 20 47 26 S 1001,9 8 0 0,7
11.11.2018 00:00:00 12,5 10,6 11,6 36 19 45 24 S 1002,1 13 0 0,0
10.11.2018 23:00:00 12,4 10,5 11,5 38 20 60 32 S 1001,9 13 0 0,0
10.11.2018 22:00:00 12,3 10,6 11,2 45 24 60 33 S 1001,7 11 0 0,2
10.11.2018 21:00:00 11,6 10,4 10,9 48 26 65 35 SSE 1001,9 1,9 0 0,1
10.11.2018 20:00:00 11,7 10,4 10,9 50 27 63 34 SSE 1001,9 10 0 0,5
10.11.2018 19:00:00 11,6 10,4 10,9 48 26 60 32 SSE 1002,2 6 0 0,7
10.11.2018 18:00:00 12,7 10,5 12,0 40 21 46 25 SSE 1002,5 17 0 0,0
10.11.2018 17:00:00 12,8 10,8 12,3 31 17 37 20 SSE 1002,4 29 0 0,0
10.11.2018 16:00:00 13,0 11,0 12,5 26 14 35 19 SSE 1002,5 28 0 0,0
10.11.2018 15:00:00 12,9 10,8 12,7 29 16 49 26 S 1002,3 27 0 0,0
10.11.2018 14:00:00 13,0 10,6 12,9 34 18 47 26 S 1002,3 26 0 0,0
10.11.2018 13:00:00 12,9 10,2 12,8 40 21 58 32 S 1002,0 23 0 0,0
10.11.2018 12:00:00 12,4 9,3 12,2 43 23 63 34 S 1001,8 16 0 0,0
10.11.2018 11:00:00 12,0 8,9 11,7 50 27 63 34 SSE 1001,6 16 0 0,0
10.11.2018 10:00:00 11,3 8,5 10,9 49 26 67 36 SSE 1001,7 13 0 0,0
10.11.2018 09:00:00 11,2 8,5 10,8 53 28 73 39 SSE 1001,8 13 0 0,0
10.11.2018 08:00:00 11,1 8,4 10,6 52 28 64 35 SSE 1001,8 13 0 0,0
10.11.2018 07:00:00 11,0 8,6 10,4 49 26 60 32 SSE 1002,2 12 0 0,0
10.11.2018 06:00:00 10,8 8,8 10,0 48 26 58 31 SSE 1003,0 9 0 0,0
10.11.2018 05:00:00 11,0 9,2 10,0 42 23 50 27 SSE 1004,0 9 0 0,0
10.11.2018 04:00:00 11,1 9,3 10,4 42 23 53 29 SSE 1004,8 9 0 0,0
10.11.2018 03:00:00 11,2 9,5 10,1 40 22 48 26 SSE 1005,7 9 0 0,0
10.11.2018 02:00:00 11,2 9,6 9,8 39 21 46 25 SSE 1006,3 8 0 0,0
10.11.2018 01:00:00 11,2 9,8 10,0 35 19 42 23 SSE 1007,3 8 0 0,0
10.11.2018 00:00:00 11,2 9,7 10,0 35 19 43 23 SSE 1008,1 8 0 0,0

tt = Température de l'air
td = dewpoint
tt 5cm = Température de l'air 5cm
ff = Vitesse du vent
fx = gusts
dd = Direction du vent
ppp = reduced air pressure
vv = visibility
sd = Ensoleillement
rr = Quantités de précipitations

stations d'obs. à proximité